Location: Unspecified
(0.0000°N, 0.0000°E)
Time: 11:35:23
(UTC+00:00)

Hubble Space Telescope - Pass Details

Date: 24 May 2020
Orbit: 536 x 540 km, 28.5° (Epoch: 30 May)

Event Time Altitude Azimuth Distance (km) Brightness Sun altitude
Exits shadow 04:17:03 38° 153° (SSE) 815 1.6 -23.2°
Drops below altitude 10° 04:19:51 10° 131° (SE) 1,778 3.7 -22.6°
Sets 04:22:08 0° 127° (SE) 2,670 4.7 -22.1°
